Regional Weather Roundup
Issued by NWS

Home | Current Version | Previous Version | Graphics & Text | Print | Product List | Glossary Off
Versions: 1 2 3 4 5 6 7 8 9 10 11 12 13 14 15 16 17 18 19 20 21 22 23 24 25 26 27 28 29 30 31 32 33 34 35 36 37 38 39 40 41 42 43 44 45 46 47 48 49 50

000
ASUS43 KMPX 221910
RWRMN
WEATHER ROUNDUP FOR MINNESOTA
NATIONAL WEATHER SERVICE TWIN CITIES/CHANHASSEN MN
200 PM CDT WED OCT 22 2014


NOTE: "FAIR" INDICATES FEW OR NO CLOUDS BELOW 12,000 FEET WITH NO
SIGNIFICANT WEATHER AND/OR OBSTRUCTIONS TO VISIBILITY. N/A MEANS
CURRENT SKY AND/OR WEATHER CONDITIONS ARE NOT AVAILABLE.

MNZ060>063-068>070-222000-
   Twin Cities Metro

CITY           SKY/WX    TMP DP  RH WIND       PRES   REMARKS
TWIN CITIES    CLOUDY    56  40  55 SE21G31   30.12F
ST PAUL        CLOUDY    55  41  59 S20G30    30.13F
CRYSTAL        CLOUDY    58  41  53 SE20G29   30.09F
BLAINE         PTSUNNY   57  43  58 SE21G29   30.11F
LAKEVILLE      MOSUNNY   57  43  58 SE18G25   30.11F
EDEN PRAIRIE   PTSUNNY   59  42  53 SE21G28   30.09F
SOUTH ST PAUL  PTSUNNY   57  40  53 SE13G23   30.13F
LAKE ELMO      CLOUDY    54  41  62 S12G22    30.15F
$$
MNZ001>005-007-008-013>017-022>024-027-028-222000-
   Northwest Minnesota

CITY           SKY/WX    TMP DP  RH WIND       PRES   REMARKS
BEMIDJI        PTSUNNY   60  43  54 S20       29.92F
HALLOCK        PTSUNNY   64  46  52 S22G30    29.77S
ROSEAU         PTSUNNY   63  48  59 S22G29    29.82F
WARROAD        PTSUNNY   63  48  59 S10G18    29.84F
THIEF RVR FALL PTSUNNY   63  45  51 S23       29.83F
CROOKSTON      MOSUNNY   63  46  55 S29       29.84S
FOSSTON        PTSUNNY   61  43  51 S20G26    29.88S
DETROIT LAKES  CLOUDY    59  45  58 S18G26    29.92S
MOORHEAD       CLOUDY    64  46  52 S17G28    29.87F
PARK RAPIDS    PTSUNNY   59  42  53 S20G29    29.94F
MAHNOMEN       FAIR      60  45  57 S20G30    29.88S
$$
MNZ006-009>011-018-025>026-222000-
   North Central Minnesota

CITY           SKY/WX    TMP DP  RH WIND       PRES   REMARKS
BAUDETTE       PTSUNNY   62  44  51 S18G30    29.88F
FLAG ISLAND    PTSUNNY   54  45  71 S22       29.84F
INTL FALLS     PTSUNNY   61  42  49 S9G22     29.95F
WASKISH        MOSUNNY   63  45  51 SE13G18   29.91F
BIG FORK       PTSUNNY   59  43  55 SE15G24   29.98F
LONGVILLE      SUNNY     59  43  55 SE16      29.98F
GRAND RAPIDS   CLOUDY    55  39  54 S24G31    30.01F
CRANE LAKE     PTSUNNY   57  39  51 SE7G18    30.04F
ORR            SUNNY     61  37  41 SE13G23   29.99F
COOK           MOSUNNY   57  41  54 SE16G25   30.04F
WALKER         FAIR      57  41  55 S15G21    29.95F
$$
MNZ012-019>021-037-222000-
   Northeast Minnesota

CITY           SKY/WX    TMP DP  RH WIND       PRES   REMARKS
DULUTH         MOSUNNY   56  38  50 SE13      30.10F
ELY            SUNNY     57  36  44 S15G22    30.07F
HIBBING        PTSUNNY   59  39  47 S17G32    30.06F
EVELETH        PTSUNNY   55  39  54 S15G21    30.09S
DULUTH HARBOR  PTSUNNY   57  41  54 S8        30.13F
TWO HARBORS    SUNNY     55  30  38 SE7       30.12F
SILVER BAY     SUNNY     52  37  58 E3        30.14F
GRAND MARAIS     N/A     51  40  65 VRB3      30.20F
G MARAIS ARPRT SUNNY     46  34  61 S8        30.18F
$$
MNZ029>031-032-039>041-046>048-054>057-064-222000-
   West Central Minnesota

CITY           SKY/WX    TMP DP  RH WIND       PRES   REMARKS
FERGUS FALLS   PTSUNNY   63  43  48 SE22      29.92F
WHEATON        CLOUDY    66  48  52 S15G23    29.91S
MORRIS         CLOUDY    64  48  55 S18G28    29.92S
ALEXANDRIA     PTSUNNY   60  44  55 S24G33    29.96F
ELBOW LAKE     FAIR      62  46  55 S20G25    29.92S
WADENA         PTSUNNY   57  43  58 S15G23    29.95F
GLENWOOD       PTSUNNY   61  45  55 SE20G26   29.97F
APPLETON       CLOUDY    68  46  45 S14       29.92F
BENSON         PTSUNNY   66  46  48 SW24      29.95S
ORTONVILLE     CLOUDY    66  48  52 S14       29.91F
MADISON        CLOUDY    70  48  46 S18       29.92F
WILLMAR        FAIR      66  43  42 SE22G29   29.99F
$$
MNZ033>034-036-042>043-049>051-058-059-222000-
   Central Minnesota

CITY           SKY/WX    TMP DP  RH WIND       PRES   REMARKS
ST CLOUD       MOSUNNY   61  41  47 SE21      30.04F
SAUK CENTRE    FAIR      60  43  53 SE20G29   29.99S
PAYNESVILLE    MOSUNNY   60  42  51 E20G30    29.99F
AITKIN         SUNNY     59  43  55 S20G26    30.02F
PINE RIVER     SUNNY     57  43  58 S21G26    30.02F
BRAINERD       SUNNY     56  41  57 S20G29    30.02F
STAPLES        MOSUNNY   57  41  54 SE14G21   29.97F
LONG PRAIRIE   FAIR      59  43  55 SE18G31   29.99F
LITTLE FALLS   MOSUNNY   57  39  51 SE16G23   30.02S
LITCHFIELD     MOSUNNY   63  45  51 SE13G23   30.02F
BUFFALO        MOSUNNY   58  41  52 SE13G21   30.07F
MAPLE LAKE     MOSUNNY   59  44  58 SE12G24   30.06F
$$
MNZ037-044-045-052-053-222000-
   East Central Minnesota

CITY           SKY/WX    TMP DP  RH WIND       PRES   REMARKS
PRINCETON      MOSUNNY   57  43  58 SE12G18   30.08F
MORA           CLOUDY    50  37  62 S12G22    30.11F
CAMBRIDGE      PTSUNNY   55  41  58 SE12      30.08F
RUSH CITY      CLOUDY    54  40  58 SE10G20   30.11F
MOOSE LAKE     PTSUNNY   55  37  50 S13G21    30.08F
HINCKLEY       CLOUDY    54  41  62 SE10G18   30.11F
CLOQUET        PTSUNNY   55  37  50 SE10G16   30.09F
MCGREGOR       CLOUDY    55  41  58 S17G25    30.06F
$$
MNZ071>073-080-081-089-090-097-098-222000-
   Southwest Minnesota

CITY           SKY/WX    TMP DP  RH WIND       PRES   REMARKS
MONTEVIDEO     PTSUNNY   66  46  48 SW10G21   29.95F
GRANITE FALLS  PTSUNNY   65  46  49 SE14      29.97F
CANBY          CLOUDY    67  49  50 S14G20    29.93F
MARSHALL       CLOUDY    66  46  48 S16G24    29.94F
REDWOOD FALLS  PTSUNNY   67  44  43 S26G33    29.98F
OLIVIA         PTSUNNY   64  45  48 S22G28    29.98F
PIPESTONE      PTSUNNY   70  48  46 S21G28    29.95F
WINDOM         MOSUNNY   66  45  45 S16G25    30.01F
WORTHINGTON    PTSUNNY   66  46  48 S17G26    30.00F
JACKSON        MOSUNNY   64  43  45 S15G23    30.04F
TRACY          CLOUDY    66  47  50 S17G23    29.96F
SLAYTON        CLOUDY    69  46  43 SE24G30   29.98F
$$
MNZ065>067-074>077-082>085-091>093-222000-
   South Central Minnesota

CITY           SKY/WX    TMP DP  RH WIND       PRES   REMARKS
MANKATO        SUNNY     61  41  48 SE21G29   30.08F
NEW ULM        MOSUNNY   64  45  48 S24G30    30.03F
ST JAMES       MOSUNNY   66  43  42 SE16G28   30.05F
FAIRMONT       MOSUNNY   63  41  45 S23G31    30.06F
GLENCOE        MOSUNNY   64  45  50 SE18G26   30.04F
FARIBAULT      MOSUNNY   61  43  51 SE16G28   30.12F
OWATONNA       MOSUNNY   61  39  44 SE20G26   30.12F
WASECA         CLOUDY    55  37  50 SE17G26   30.13F
ALBERT LEA     MOSUNNY   57  43  58 SE18G24   30.13F
$$
MNZ078>079-086>088-094>096-222000-
   Southeast Minnesota

CITY           SKY/WX    TMP DP  RH WIND       PRES   REMARKS
ROCHESTER      PTSUNNY   56  40  55 S17G29    30.18F
STANTON        PTSUNNY   58  41  53 S13G25    30.13F
DODGE CENTER   PTSUNNY   55  41  58 S22       30.16F
WINONA         SUNNY     59  37  44 S8        30.21F
AUSTIN         PTSUNNY   55  41  58 S12G23    30.16F
PRESTON        SUNNY     55  40  56 S16G23    30.20F
$$
ABBREVIATIONS USED IN REMARKS
   TC - TEMPERATURES IN CELSIUS
  WCI - WIND CHILL INDEX
   HX - HEAT INDEX
  VSB - VISIBILITY
$$



USA.gov is the U.S. government's official web portal to all federal, state and local government web resources and services.